�������l�o���
Date,Time,MP-1(��Sv/h),MP-2(��Sv/h),MP-3(��Sv/h),MP-4(��Sv/h),MP-5(��Sv/h),MP-6(��Sv/h),MP-7(��Sv/h),MP-8(��Sv/h),����,����(m/s),���J
2022/10/09,00:00,0.539,0.762,0.498,0.957,0.640,0.327,0.560,0.537,�k��,5.8,�L
2022/10/09,00:10,0.538,0.762,0.499,0.957,0.640,0.326,0.561,0.535,�k��,5.3,�L
2022/10/09,00:20,0.541,0.766,0.498,0.960,0.642,0.327,0.562,0.536,�k��,5.6,�L
2022/10/09,00:30,0.540,0.768,0.500,0.960,0.643,0.326,0.562,0.537,�k��,5.7,�L
2022/10/09,00:40,0.540,0.767,0.498,0.962,0.646,0.327,0.561,0.538,�k��,7.0,�L
2022/10/09,00:50,0.540,0.769,0.499,0.960,0.645,0.326,0.563,0.538,�k��,6.7,��
2022/10/09,01:00,0.540,0.770,0.499,0.964,0.648,0.326,0.562,0.538,�k�k��,7.5,�L
2022/10/09,01:10,0.540,0.769,0.499,0.965,0.650,0.325,0.564,0.539,�k�k��,7.0,�L
2022/10/09,01:20,0.538,0.769,0.499,0.965,0.649,0.327,0.564,0.539,�k�k��,8.1,�L
2022/10/09,01:30,0.540,0.770,0.498,0.966,0.650,0.325,0.563,0.540,�k�k��,7.2,�L
2022/10/09,01:40,0.540,0.769,0.498,0.967,0.649,0.326,0.565,0.539,�k��,6.4,��
2022/10/09,01:50,0.539,0.772,0.498,0.967,0.653,0.327,0.564,0.539,�k�k��,6.2,��
2022/10/09,02:00,0.542,0.772,0.499,0.968,0.652,0.325,0.564,0.537,�k�k��,6.7,��
2022/10/09,02:10,0.539,0.770,0.498,0.968,0.654,0.326,0.565,0.537,�k�k��,6.7,��
2022/10/09,02:20,0.540,0.771,0.500,0.969,0.655,0.327,0.565,0.539,�k��,5.8,��
2022/10/09,02:30,0.540,0.769,0.499,0.968,0.655,0.325,0.565,0.539,�k��,6.2,��
2022/10/09,02:40,0.540,0.771,0.499,0.967,0.654,0.327,0.564,0.539,�k�k��,6.7,�L
2022/10/09,02:50,0.541,0.770,0.501,0.970,0.657,0.326,0.564,0.539,�k�k��,5.1,�L
2022/10/09,03:00,0.541,0.772,0.500,0.971,0.656,0.328,0.566,0.540,�k��,6.1,��
2022/10/09,03:10,0.541,0.773,0.500,0.971,0.656,0.326,0.564,0.540,�k�k��,6.5,��
2022/10/09,03:20,0.542,0.774,0.499,0.970,0.657,0.326,0.565,0.540,�k��,7.4,��
2022/10/09,03:30,0.541,0.774,0.500,0.974,0.657,0.326,0.565,0.540,�k��,6.7,��
2022/10/09,03:40,0.540,0.774,0.499,0.973,0.659,0.326,0.565,0.539,�k��,6.6,��
2022/10/09,03:50,0.540,0.774,0.501,0.975,0.657,0.326,0.565,0.539,�k��,6.4,��
2022/10/09,04:00,0.541,0.775,0.500,0.973,0.659,0.325,0.565,0.541,�k��,6.8,��
2022/10/09,04:10,0.541,0.774,0.501,0.975,0.660,0.326,0.565,0.541,�k�k��,6.9,��
2022/10/09,04:20,0.542,0.774,0.501,0.975,0.660,0.326,0.566,0.539,�k�k��,7.1,��
2022/10/09,04:30,0.541,0.775,0.499,0.976,0.661,0.325,0.565,0.540,�k�k��,6.3,��
2022/10/09,04:40,0.542,0.775,0.501,0.975,0.661,0.327,0.566,0.541,�k�k��,6.9,��
2022/10/09,04:50,0.542,0.776,0.500,0.976,0.661,0.327,0.566,0.542,�k�k��,6.3,��
2022/10/09,05:00,0.541,0.776,0.501,0.975,0.660,0.327,0.566,0.541,�k�k��,6.4,��
2022/10/09,05:10,0.542,0.775,0.502,0.977,0.662,0.328,0.568,0.541,�k�k��,6.7,��
2022/10/09,05:20,0.542,0.777,0.500,0.976,0.662,0.327,0.568,0.540,�k��,7.3,��
2022/10/09,05:30,0.542,0.778,0.501,0.977,0.663,0.327,0.566,0.542,�k�k��,7.0,��
2022/10/09,05:40,0.542,0.778,0.502,0.977,0.663,0.327,0.567,0.541,�k�k��,7.3,��
2022/10/09,05:50,0.541,0.774,0.502,0.978,0.663,0.326,0.567,0.542,�k��,7.4,��
2022/10/09,06:00,0.542,0.776,0.502,0.977,0.664,0.328,0.567,0.541,�k��,6.6,��
2022/10/09,06:10,0.542,0.778,0.503,0.978,0.665,0.326,0.567,0.541,�k��,7.7,��
2022/10/09,06:20,0.543,0.780,0.502,0.978,0.666,0.326,0.567,0.541,�k�k��,7.0,��
2022/10/09,06:30,0.543,0.779,0.501,0.979,0.663,0.327,0.567,0.542,�k�k��,7.1,��
2022/10/09,06:40,0.542,0.779,0.502,0.979,0.666,0.327,0.567,0.541,�k�k��,6.5,��
2022/10/09,06:50,0.542,0.779,0.503,0.980,0.666,0.327,0.568,0.541,�k�k��,7.6,��
2022/10/09,07:00,0.544,0.780,0.503,0.979,0.668,0.327,0.568,0.543,�k�k��,7.5,��
2022/10/09,07:10,0.544,0.780,0.502,0.981,0.665,0.327,0.569,0.541,�k�k��,6.9,��
2022/10/09,07:20,0.544,0.780,0.505,0.978,0.666,0.328,0.569,0.541,�k�k��,7.0,��
2022/10/09,07:30,0.544,0.780,0.503,0.979,0.667,0.326,0.568,0.541,�k�k��,7.6,��
2022/10/09,07:40,0.544,0.780,0.503,0.979,0.667,0.327,0.570,0.541,�k�k��,5.5,��
2022/10/09,07:50,0.544,0.780,0.506,0.980,0.667,0.327,0.568,0.543,�k�k��,6.0,��
2022/10/09,08:00,0.542,0.780,0.504,0.980,0.668,0.327,0.567,0.542,�k�k��,5.9,��
2022/10/09,08:10,0.544,0.781,0.505,0.983,0.669,0.327,0.570,0.540,�k�k��,6.1,��
2022/10/09,08:20,0.544,0.781,0.506,0.984,0.668,0.328,0.568,0.543,�k�k��,4.5,�L
2022/10/09,08:30,0.545,0.782,0.505,0.982,0.668,0.326,0.569,0.542,�k�k��,4.4,�L
2022/10/09,08:40,0.546,0.781,0.505,0.981,0.671,0.327,0.567,0.542,�k�k��,4.6,��
2022/10/09,08:50,0.546,0.780,0.505,0.981,0.668,0.327,0.568,0.542,�k�k��,5.6,��
2022/10/09,09:00,0.548,0.781,0.507,0.983,0.670,0.328,0.569,0.541,�k�k��,5.0,��
2022/10/09,09:10,0.544,0.782,0.506,0.982,0.669,0.327,0.567,0.542,�k�k��,6.3,��
2022/10/09,09:20,0.545,0.782,0.506,0.982,0.670,0.328,0.567,0.542,�k�k��,5.6,��
2022/10/09,09:30,0.546,0.781,0.507,0.983,0.671,0.326,0.568,0.540,�k�k��,5.9,��
2022/10/09,09:40,0.543,0.782,0.507,0.984,0.670,0.327,0.569,0.542,�k�k��,4.6,��
2022/10/09,09:50,0.546,0.783,0.508,0.982,0.668,0.327,0.569,0.541,�k�k��,5.2,��
2022/10/09,10:00,0.547,0.783,0.506,0.985,0.669,0.327,0.570,0.541,�k�k��,4.4,��
2022/10/09,10:10,0.546,0.784,0.506,0.986,0.671,0.326,0.569,0.541,�k�k��,4.8,��
2022/10/09,10:20,0.544,0.784,0.505,0.985,0.671,0.326,0.568,0.541,�k�k��,4.4,��
2022/10/09,10:30,0.545,0.783,0.506,0.986,0.671,0.328,0.570,0.539,�k�k��,3.7,��
2022/10/09,10:40,0.547,0.784,0.507,0.985,0.671,0.327,0.568,0.541,�k�k��,3.2,��
2022/10/09,10:50,0.544,0.783,0.506,0.984,0.672,0.326,0.570,0.540,�k�k��,3.8,��
2022/10/09,11:00,0.547,0.784,0.505,0.987,0.672,0.327,0.570,0.540,�k�k��,4.8,��
2022/10/09,11:10,0.547,0.786,0.507,0.988,0.674,0.327,0.570,0.540,�k��,4.5,��
2022/10/09,11:20,0.546,0.784,0.505,0.986,0.674,0.328,0.570,0.542,�k�k��,4.7,��
2022/10/09,11:30,0.547,0.785,0.507,0.985,0.673,0.327,0.570,0.541,�k��,5.1,��
2022/10/09,11:40,0.546,0.785,0.507,0.988,0.673,0.328,0.571,0.541,�k�k��,3.1,��
2022/10/09,11:50,0.547,0.786,0.509,0.989,0.673,0.327,0.571,0.542,�k�k��,3.6,��
2022/10/09,12:00,0.546,0.786,0.509,0.986,0.673,0.327,0.570,0.540,�k�k��,3.6,��
2022/10/09,12:10,0.546,0.786,0.508,0.989,0.673,0.328,0.570,0.541,�k�k��,2.9,��
2022/10/09,12:20,0.547,0.786,0.508,0.986,0.676,0.328,0.571,0.542,�k�k��,3.9,��
2022/10/09,12:30,0.547,0.786,0.508,0.987,0.675,0.327,0.570,0.539,�k�k��,3.3,��
2022/10/09,12:40,0.548,0.786,0.508,0.987,0.677,0.328,0.570,0.540,�k�k��,3.0,��
2022/10/09,12:50,0.548,0.787,0.509,0.992,0.676,0.328,0.570,0.541,�k�k��,3.4,��
2022/10/09,13:00,0.547,0.787,0.509,0.990,0.678,0.328,0.570,0.542,�k�k��,3.3,��
2022/10/09,13:10,0.546,0.786,0.507,0.990,0.677,0.327,0.569,0.541,�k�k��,3.0,��
2022/10/09,13:20,0.547,0.786,0.508,0.990,0.676,0.330,0.570,0.541,�k�k��,3.0,��
2022/10/09,13:30,0.548,0.788,0.509,0.990,0.676,0.329,0.571,0.542,�k��,4.1,��
2022/10/09,13:40,0.548,0.787,0.507,0.992,0.676,0.327,0.572,0.541,�k�k��,4.0,��
2022/10/09,13:50,0.547,0.787,0.510,0.987,0.676,0.329,0.573,0.542,�k�k��,3.7,��
2022/10/09,14:00,0.548,0.788,0.509,0.991,0.677,0.329,0.571,0.544,�k�k��,4.1,��
2022/10/09,14:10,0.549,0.788,0.509,0.990,0.677,0.327,0.571,0.542,�k�k��,4.1,��
2022/10/09,14:20,0.550,0.789,0.510,0.990,0.678,0.328,0.571,0.544,�k�k��,4.4,��
2022/10/09,14:30,0.550,0.790,0.511,0.989,0.678,0.328,0.571,0.543,�k�k��,3.4,��
2022/10/09,14:40,0.550,0.789,0.512,0.990,0.677,0.328,0.571,0.542,�k,3.6,��
2022/10/09,14:50,0.548,0.789,0.510,0.990,0.678,0.328,0.572,0.543,�k�k��,4.1,��
2022/10/09,15:00,0.548,0.790,0.508,0.990,0.678,0.329,0.572,0.542,�k�k��,4.2,�L
2022/10/09,15:10,0.550,0.789,0.510,0.992,0.678,0.328,0.571,0.542,�k,3.6,��
2022/10/09,15:20,0.548,0.789,0.510,0.990,0.678,0.327,0.572,0.542,�k�k��,4.5,��
2022/10/09,15:30,0.549,0.790,0.509,0.990,0.677,0.328,0.573,0.542,�k�k��,4.6,��
2022/10/09,15:40,0.549,0.790,0.510,0.994,0.680,0.328,0.573,0.543,�k�k��,4.3,��
2022/10/09,15:50,0.549,0.791,0.512,0.993,0.678,0.329,0.572,0.542,�k�k��,4.3,��
2022/10/09,16:00,0.551,0.790,0.512,0.990,0.681,0.328,0.571,0.543,�k�k��,5.3,��
2022/10/09,16:10,0.551,0.789,0.512,0.990,0.681,0.328,0.571,0.542,�k�k��,5.1,��
2022/10/09,16:20,0.551,0.792,0.514,0.993,0.682,0.328,0.572,0.542,�k�k��,4.9,��
2022/10/09,16:30,0.552,0.791,0.514,0.992,0.682,0.330,0.572,0.543,�k�k��,4.4,��
2022/10/09,16:40,0.552,0.791,0.513,0.992,0.681,0.329,0.572,0.544,�k�k��,5.3,��
2022/10/09,16:50,0.551,0.794,0.511,0.991,0.682,0.329,0.572,0.545,�k�k��,4.9,��
2022/10/09,17:00,0.552,0.794,0.512,0.992,0.682,0.329,0.572,0.544,�k�k��,4.9,��
2022/10/09,17:10,0.553,0.794,0.513,0.991,0.681,0.328,0.571,0.544,�k�k��,5.3,��
2022/10/09,17:20,0.552,0.794,0.513,0.992,0.684,0.329,0.571,0.545,�k�k��,5.5,��
2022/10/09,17:30,0.553,0.796,0.511,0.990,0.684,0.329,0.571,0.545,�k�k��,5.7,��
2022/10/09,17:40,0.552,0.795,0.513,0.994,0.683,0.329,0.572,0.545,�k�k��,5.8,��
2022/10/09,17:50,0.549,0.794,0.513,0.993,0.684,0.330,0.572,0.545,�k�k��,6.3,��
2022/10/09,18:00,0.553,0.793,0.512,0.992,0.684,0.327,0.572,0.546,�k�k��,6.1,��
2022/10/09,18:10,0.552,0.794,0.512,0.995,0.684,0.328,0.573,0.546,�k,6.2,��
2022/10/09,18:20,0.552,0.793,0.513,0.992,0.684,0.331,0.572,0.546,�k,5.9,��
2022/10/09,18:30,0.553,0.795,0.513,0.992,0.683,0.330,0.572,0.545,�k,5.5,��
2022/10/09,18:40,0.553,0.795,0.512,0.993,0.685,0.331,0.574,0.545,�k�k��,5.9,��
2022/10/09,18:50,0.553,0.794,0.513,0.994,0.684,0.331,0.572,0.543,�k�k��,5.3,��
2022/10/09,19:00,0.553,0.792,0.515,0.992,0.684,0.330,0.574,0.544,�k,5.4,��
2022/10/09,19:10,0.553,0.796,0.512,0.994,0.685,0.331,0.574,0.545,�k,6.7,��
2022/10/09,19:20,0.552,0.794,0.512,0.992,0.683,0.330,0.573,0.545,�k�k��,5.7,��
2022/10/09,19:30,0.552,0.796,0.514,0.991,0.684,0.330,0.573,0.545,�k�k��,6.2,��
2022/10/09,19:40,0.554,0.796,0.513,0.993,0.683,0.331,0.573,0.546,�k�k��,5.5,�L
2022/10/09,19:50,0.553,0.794,0.513,0.992,0.685,0.330,0.572,0.545,�k�k��,5.5,��
2022/10/09,20:00,0.555,0.795,0.513,0.992,0.684,0.331,0.573,0.546,�k�k��,5.6,�L
2022/10/09,20:10,0.552,0.794,0.514,0.995,0.687,0.330,0.573,0.547,�k�k��,5.5,�L
2022/10/09,20:20,0.553,0.795,0.514,0.994,0.685,0.331,0.573,0.545,�k,4.4,�L
2022/10/09,20:30,0.554,0.793,0.515,0.994,0.686,0.331,0.574,0.547,�k�k��,4.6,�L
2022/10/09,20:40,0.555,0.794,0.513,0.994,0.684,0.332,0.574,0.546,�k�k��,6.2,�L
2022/10/09,20:50,0.554,0.794,0.514,0.992,0.685,0.330,0.572,0.546,�k,6.7,�L
2022/10/09,21:00,0.551,0.793,0.514,0.994,0.682,0.331,0.572,0.547,�k,6.1,�L
2022/10/09,21:10,0.550,0.792,0.511,0.993,0.684,0.332,0.573,0.545,�k,5.6,�L
2022/10/09,21:20,0.550,0.788,0.514,0.992,0.683,0.332,0.571,0.546,�k�k��,6.6,�L
2022/10/09,21:30,0.551,0.789,0.512,0.993,0.681,0.330,0.573,0.544,�k�k��,6.6,�L
2022/10/09,21:40,0.550,0.787,0.510,0.992,0.681,0.330,0.571,0.544,�k�k��,6.5,�L
2022/10/09,21:50,0.548,0.783,0.510,0.990,0.678,0.330,0.570,0.546,�k�k��,6.4,�L
2022/10/09,22:00,0.548,0.783,0.510,0.987,0.678,0.331,0.569,0.541,�k�k��,7.4,�L
2022/10/09,22:10,0.548,0.782,0.509,0.987,0.676,0.330,0.570,0.543,�k�k��,7.8,�L
2022/10/09,22:20,0.546,0.781,0.508,0.981,0.672,0.329,0.569,0.543,�k�k��,7.9,�L
2022/10/09,22:30,0.546,0.778,0.508,0.982,0.674,0.330,0.569,0.541,�k�k��,6.8,�L
2022/10/09,22:40,0.543,0.775,0.507,0.980,0.672,0.329,0.569,0.540,�k�k��,7.6,�L
2022/10/09,22:50,0.540,0.771,0.506,0.977,0.670,0.329,0.569,0.539,�k�k��,7.2,�L
2022/10/09,23:00,0.542,0.773,0.508,0.975,0.672,0.330,0.569,0.540,�k�k��,7.2,�L
2022/10/09,23:10,0.543,0.774,0.508,0.977,0.673,0.328,0.569,0.541,�k�k��,8.5,�L
2022/10/09,23:20,0.543,0.775,0.507,0.977,0.673,0.329,0.567,0.541,�k�k��,7.9,�L
2022/10/09,23:30,0.543,0.775,0.509,0.976,0.672,0.330,0.568,0.540,�k�k��,8.4,�L
2022/10/09,23:40,0.546,0.776,0.508,0.978,0.674,0.332,0.569,0.541,�k��,8.1,�L
2022/10/09,23:50,0.545,0.777,0.509,0.979,0.674,0.332,0.568,0.540,�k��,8.1,�L
